Погода в Ольденбурге

Германия     53°08′33″N   8°12′38″E
темп.,
°C
ветер,
м/с
пор.,
м/с
влажн.,
%
обл.,
%
осадки,
мм/ч
давл.,
гПа
погр.,
м
4 декабря, сб
сб401:00+3юз5119499 0.2 1000432
04:00+3юз4895100 0.0 998339
07:00+3ю369599 0.0 998237
10:00+4ю3692100 0.0 998293
13:00+5ююв4688100 0.0 996331
16:00+4юв4791100 0.0 995313
19:00+4вюв3890100 0.1 994354
22:00+3юв2498100 4.3 995478
5 декабря, вс
вс501:00+1в1199100 8.1 99698
04:00+3ююз1698100 1.1 997358
07:00+4ююз3894100 1.1 999401
10:00+4ю3692100 0.0 1002324
13:00+4ю2392100 0.1 1004281
16:00+4св2294100 0.2 100772
19:00+2всв3599100 0.3 1010207
22:00+2всв3699100 0.2 1012262
6 декабря, пн
пн601:00+2всв3598100 0.3 1014283
04:00+1в2496100 0.0 1014241
07:00+2вюв3597100 0.0 1015339
10:00+2юв4695100 0.0 1015346
13:00+3юв4789100 0.0 1013382
16:00+2юв51089100 0.0 1010348
19:00+1юв51289100 0.0 1008428
22:00+2юв71386100 0.0 1005501
7 декабря, вт
вт701:00+1юв61394100 0.1 1003633
04:00+1вюв41097100 0.8 1003371
07:00+1вюв2598100 0.9 1005273
10:00+2ю1299100 0.6 1007249
13:00+2ю1299100 1.3 1008232
16:00+3юв2398100 0.1 1008161
19:00+3юв3599100 0.5 1008179
22:00+3юв3598100 0.1 1007225
8 декабря, ср
ср801:00+3вюв3598100 0.1 1006221
04:00+2вюв41095100 0.0 1004319
07:00+1юв51388100 0.0 1004447
10:00+1вюв61483100 0.0 1003566
13:00+2вюв71179100 0.0 1003653
16:00+1юв61184100 0.0 1003600
19:00+1вюв51088100 0.0 1005502
22:000в5994100 0.1 1006453